Погода в Уйте

Россия / Архангельская область     63°00′34″N   42°31′00″E
темп.,
°C
ветер,
м/с
пор.,
м/с
влажн.,
%
обл.,
%
осадки,
мм/ч
давл.,
гПа
погр.,
м
20 января, ср
ср2000:00−9зюз3895100 0.3 1007341
03:00−10з389698 0.4 1007290
06:00−13з389796 0.1 1006200
09:00−15з389784 0.1 1007196
12:00−14зсз389687 0.0 1008297
15:00−13зсз389593 0.1 1010343
18:00−16ссз3796100 0.1 1011325
21:00−22сз239882 0.1 101267
21 января, чт
чт2100:00−22сз259890 0.0 1013136
03:00−24сз249794 0.0 1014116
06:00−25ссз2497100 0.0 1013116
09:00−28ссз229778 0.0 101419
12:00−27ссз23963 0.0 1015133
15:00−28ссз22961 0.0 101530
18:00−30с12960 0.0 101619
21:00−31ссв11960 0.0 101619
22 января, пт
пт2200:00−31св11958 0.0 101719
03:00−31в119637 0.0 101719
06:00−29вюв2296100 0.0 101743
09:00−27вюв2795100 0.0 1017228
12:00−25вюв3894100 0.0 1016272
15:00−22вюв4893100 0.0 1016329
18:00−21юв51192100 0.0 1014401
21:00−19юв51296100 0.3 1014448
23 января, сб
сб2300:00−18юв51195100 0.6 1013513
03:00−18юв51193100 0.8 1011527
06:00−18вюв41095100 0.3 1010491
09:00−17вюв41094100 0.6 1010459
12:00−16вюв4992100 0.1 1009460
15:00−16вюв3894100 0.1 1009411
18:00−15вюв4994100 0.1 1008405
21:00−14юв4995100 0.9 1007413
24 января, вс
вс2400:00−14юв4995100 1.7 1006385
03:00−13юв3695100 2.6 1006269
06:00−14ююв229799 0.1 100751
09:00−14ююв129899 0.2 100820
12:00−8юв119799 0.2 101050
15:00−6ююв229899 0.3 101126
18:00−6юв2295100 0.0 101223
21:00−7юв2496100 0.0 101194